Reggio Calabria, Italy

6:12 PM CEST on August 20, 2017 (GMT +0200)
Reggio Calabria

Weather History for LICR - October, 2012

Change the Weather History Date:

Tuesday, October 9, 2012

  Actual Average Record
Temperature  
Mean Temperature 74 °F -  
Max Temperature 80 °F 72 °F 87 °F (2004)
Min Temperature 69 °F 60 °F 51 °F (2011)
Cooling Degree Days 10    
Growing Degree Days 24 (Base 50)    
Moisture  
Dew Point 62 °F    
Average Humidity 62    
Maximum Humidity 73    
Minimum Humidity 51    
Precipitation  
Precipitation 0.00 in - - ()
Sea Level Pressure  
Sea Level Pressure 29.91 in    
Wind  
Wind Speed 5 mph ()    
Max Wind Speed 13 mph    
Max Gust Speed -    
Visibility 6.2 miles    
Events      
Averages and records for this station are not official NWS values.
T = Trace of Precipitation, MM = Missing Value Source: Averaged Metar Reports

Daily Weather History Graph

Daily Weather History Graph

Search for Another Location

Airport or City:

Trip Planner

Search our weather history database for the weather conditions in past years. The results will help you decide how hot, cold, wet, or windy it might be!

Date:

Astronomy

Oct. 09, 2012 Rise Set
Actual Time 7:00 AM CEST 6:27 PM CEST
Civil Twilight 6:34 AM CEST 6:54 PM CEST
Nautical Twilight 6:03 AM CEST 7:24 PM CEST
Astronomical Twilight 5:33 AM CEST 7:55 PM CEST
Moon 12:25 AM CEST (10/9) 2:39 PM CEST (10/9)
Length of Visible Light 12h 20m
Length of Day
11h 27m
Last Quarter, 39% of the Moon is Illuminated
Oct 9
Last Quarter
Oct 15
New
Oct 22
First Quarter
Oct 29
Full
Nov 7
Last Quarter

Hourly Weather History & Observations

Time (CEST) Temp. Heat Index Dew Point Humidity Pressure Visibility Wind Dir Wind Speed Gust Speed Precip Events Conditions
5:50 AM 69.8 °F - 59.0 °F 68% 29.95 in 6.2 mi NE 2.3 mph - N/A   Partly Cloudy
6:50 AM 69.8 °F - 59.0 °F 68% 29.95 in 6.2 mi NE 3.5 mph - N/A   Scattered Clouds
7:50 AM 69.8 °F - 60.8 °F 73% 29.95 in - Variable 2.3 mph - N/A   Clear
8:50 AM 75.2 °F - 62.6 °F 65% 29.95 in - Variable 2.3 mph - N/A   Clear
9:50 AM 75.2 °F - 64.4 °F 69% 29.95 in - WNW 5.8 mph - N/A   Clear
10:50 AM 77.0 °F - 64.4 °F 65% 29.95 in - West 5.8 mph - N/A   Clear
11:50 AM 78.8 °F - 62.6 °F 57% 29.95 in - NNW 9.2 mph - N/A   Clear
12:50 PM 80.6 °F 81.8 °F 62.6 °F 54% 29.92 in - North 11.5 mph - N/A   Clear
1:50 PM 80.6 °F 81.8 °F 62.6 °F 54% 29.89 in - North 12.7 mph - N/A   Clear
2:50 PM 80.6 °F 81.5 °F 60.8 °F 51% 29.89 in - North 12.7 mph - N/A   Clear
3:50 PM 80.6 °F 81.5 °F 60.8 °F 51% 29.89 in 6.2 mi North 11.5 mph - N/A   Partly Cloudy
4:50 PM 78.8 °F - 60.8 °F 54% 29.89 in 6.2 mi North 9.2 mph - N/A   Partly Cloudy
5:50 PM 77.0 °F - 60.8 °F 57% 29.89 in 6.2 mi North 10.4 mph - N/A   Partly Cloudy
6:50 PM 75.2 °F - 62.6 °F 65% 29.89 in 6.2 mi North 5.8 mph - N/A   Scattered Clouds
7:50 PM 75.2 °F - 62.6 °F 65% 29.89 in 6.2 mi North 6.9 mph - N/A   Scattered Clouds
8:50 PM 73.4 °F - 62.6 °F 69% 29.89 in 6.2 mi NE 4.6 mph - N/A   Scattered Clouds
9:50 PM 73.4 °F - 60.8 °F 65% 29.89 in 6.2 mi NE 4.6 mph - N/A   Scattered Clouds
10:50 PM 71.6 °F - 60.8 °F 69% 29.89 in 6.2 mi NE 5.8 mph - N/A   Scattered Clouds
11:50 PM 73.4 °F - 60.8 °F 65% 29.86 in 6.2 mi NE 8.1 mph - N/A   Scattered Clouds